Home > Weather > Cuzco > Past weeks

Flag for Peru Weather for the Past 2 Weeks in Cuzco, Cusco, Peru

Now
43 °F

Passing clouds.


Feels Like: 40 °F
Forecast: 32 / 64 °F
Wind: 5 mph from East

Location: Cuzco Airport

Current Time: May 3, 2016 at 1:04:18 AM

Latest Report: May 3, 2016 at 12:00 AM


Visibility: N/A

Pressure: 30.57 "Hg (20.21 "Hg at 3379m altitude)

Humidity: 53%

Dew Point: 27 °F

Location of CuzcoLocation

Historic Weather in Cuzco — Graph

°F

Cuzco Temperature Yesterday

Maximum temperature yesterday: 73 °F (at 2:00 PM)
Minimum temperature yesterday: 37 °F (at 5:00 AM)
Average temperature yesterday: 54 °F

High & Low Weather Summary for the Past Weeks

 TemperatureHumidityPressure
High75 °F (Apr 26, 2:00 PM)100% (May 1, 2:00 AM)30.66 "Hg (May 1, 2:00 AM)
Low36 °F (Apr 26, 6:00 AM)11% (Apr 26, 2:00 PM)30.27 "Hg (Apr 26, 3:00 PM)
Average55 °F56%30.48 "Hg
* Reported Apr 17 11:00 PM — May 2 11:00 PM, Cuzco, Weather by CustomWeather, © 2016

Note: Actual official high and low records may vary slightly from our data, if they occured in-between our weather recording intervals... More about our weather records

Advertising

Cuzco Weather History for the Previous 24 Hours

Scroll right to see more
 ConditionsComfort  
Time TempWeatherWind HumidityBarometerVisibility
11:00 PM
Mon, May 2
46 °FPassing clouds.3 mph46%30.60 "HgN/A
10:00 PM45 °FPassing clouds.No wind49%30.57 "HgN/A
9:00 PM46 °FPassing clouds.5 mph46%30.57 "HgN/A
8:00 PM50 °FPassing clouds.No wind37%30.54 "HgN/A
7:00 PM57 °FPassing clouds.5 mph27%30.51 "HgN/A
6:00 PM61 °FClear.6 mph27%30.45 "HgN/A
5:00 PM64 °FPassing clouds.15 mph26%30.39 "HgN/A
4:00 PM70 °FPassing clouds.12 mph17%30.36 "HgN/A
3:00 PM73 °FPassing clouds.12 mph14%30.39 "HgN/A
2:00 PM73 °FPassing clouds.5 mph14%30.39 "HgN/A
1:00 PM70 °FPassing clouds.6 mph20%30.45 "HgN/A
12:00 PM72 °FPassing clouds.3 mph19%30.48 "HgN/A
11:00 AM68 °FPassing clouds.2 mph23%30.51 "HgN/A
10:00 AM63 °FPartly sunny.No wind25%30.57 "HgN/A
9:00 AM55 °FPartly sunny.2 mph33%30.57 "HgN/A
8:00 AM50 °FPartly sunny.1 mph47%30.57 "HgN/A
7:00 AM43 °FPartly sunny.No wind61%30.54 "HgN/A
6:00 AM37 °FPassing clouds.No wind70%30.51 "HgN/A
5:00 AM37 °FPassing clouds.No wind75%30.48 "HgN/A
4:00 AM39 °FPassing clouds.No wind65%30.48 "HgN/A
3:00 AM39 °FPassing clouds.1 mph70%30.45 "HgN/A
2:00 AM41 °FPassing clouds.No wind66%30.45 "HgN/A
1:00 AM41 °FPassing clouds.2 mph70%30.48 "HgN/A
Weather by CustomWeather, © 2016

See weather overviewHow to use our weather pages